User: anonymous   Login
Location: Andrest
(43.3200°N, 0.0641°E)
Time: 18:48:36
(UTC+00:00)
Language:

Cosmos 2058 Rocket - Orbit

View from above orbital plane
View from above orbital plane
View from above satellite
View from above satellite

Ground track
Ground track

The orbit data is extracted from the following two-line orbital elements,

1 20466U 90010B   21172.47572425  .00000056  00000-0  41501-5 0  9994
2 20466  82.5039  81.4221 0019859 201.2981 158.7409 14.81427034673363
Epoch (UTC): 21 June 2021 11:25:02
Eccentricity: 0.0019859
inclination: 82.5039°
perigee height: 611 km
apogee height: 639 km
right ascension of ascending node: 81.4221°
argument of perigee: 201.2981°
revolutions per day: 14.81427034
mean anomaly at epoch: 158.7409°
orbit number at epoch: 67336

The dashed part of the orbit path shows where the satellite is in the earth's shadow,  

DLR